Location: Peebles
(55.6412°N, 3.1714°W)
Time: 21:52:56
(UTC+00:00)

deb Agena D - Pass Details

Date: 25 September 2023
Orbit: 794 x 979 km, 99.8° (Epoch: 28 November)

Event Time Altitude Azimuth Distance (km) Brightness Sun altitude
Rises 23:24:36 0° 26° (NNE) 3,696 9.9 -31.8°
Reaches altitude 10° 23:28:31 10° 51° (NE) 2,734 8.9 -32.0°
Enters shadow 23:29:37 12° 60° (ENE) 2,562 8.7 -32.1°
